Regional Weather Roundup
Issued by NWS

Home | Current Version | Previous Version | Text Only | Print | Product List | Glossary Off
Versions: 1 2 3 4 5 6 7 8 9 10 11 12 13 14 15 16 17 18 19 20 21 22 23 24 25 26 27 28 29 30 31 32 33 34 35 36 37 38 39 40 41 42 43 44 45 46 47 48 49 50

992
ASUS43 KTOP 250308
RWRKS

WEATHER ROUNDUP FOR KANSAS
NATIONAL WEATHER SERVICE GOODLAND KS
1000 PM CDT SUN JUL 24 2016

NOTE:  "FAIR" INDICATES FEW OR NO CLOUDS BELOW 12,000 FEET WITH NO
SIGNIFICANT WEATHER AND/OR OBSTRUCTIONS TO VISIBILITY.

KSZ001>006-013>018-027>032-041>047-250400-
NORTHWEST KANSAS

CITY           SKY/WX    TMP DP  RH WIND       PRES   REMARKS
GOODLAND       CLOUDY    75  59  57 NE8       30.19R
HAYS           MOCLDY    79  59  50 E15       30.04R
HILL CITY      PTCLDY    77  63  61 NE9       30.07R
RUSSELL        CLOUDY    77  63  61 NE16      30.02R
$$

KSZ061>065-074>080-084>089-250400-
SOUTHWEST KANSAS

CITY           SKY/WX    TMP DP  RH WIND       PRES   REMARKS
DODGE CITY     CLOUDY    83  65  54 N9        30.00R
ELKHART          N/A     83  59  44 W22         N/A
GARDEN CITY    CLOUDY    83  68  60 NE16      30.03R
GREAT BEND     CLEAR     81  66  61 NE12      30.00R
LIBERAL        PTCLDY    84  64  51 NE3       30.02R
PRATT          CLEAR     82  69  63 NE13G20   29.97R
$$

KSZ066>073-081>083-090>101-250400-
SOUTHEAST KANSAS

CITY           SKY/WX    TMP DP  RH WIND       PRES   REMARKS
CHANUTE        CLOUDY    85  75  72 SE6       29.95R
COFFEYVILLE    PTCLDY    88  74  63 SE7       29.94R HX  96
HUTCHINSON     MOCLDY    86  72  62 NE12      29.97R
MEDICINE LODGE   N/A     92  67  43 E6        29.92R HX  95
NEWTON         PTCLDY    84  73  69 NE9       29.99R
PARSONS        CLOUDY    85  75  72 CALM      29.96R
WICHITA INTL   PTCLDY    89  70  53 E8        29.94R
WICHITA JABRA  CLEAR     83  75  77 E5        29.96R
WICHITA MCCONL CLEAR     88  71  55 SE8       29.95R
WINFIELD       CLEAR     86  70  58 SE6       29.95R
$$

KSZ007>012-019>026-033>040-048>060-102>105-250400-
NORTHEAST KANSAS

CITY           SKY/WX    TMP DP  RH WIND       PRES   REMARKS
CONCORDIA      CLEAR     73  63  70 E6        30.04R
EMPORIA        CLEAR     84  76  76 NE13      29.98R
LAWRENCE       PTCLDY    80  68  66 E5        29.98R
MANHATTAN      CLEAR     78  67  68 N5        30.00R
MARYSVILLE     CLEAR     70  63  78 CALM      30.04R
OLATHE IND     CLOUDY    83  73  72 NE8       29.99R
OLATHE EXE     CLOUDY    82  73  74 NE10      29.99R
SALINA         PTCLDY    82  68  62 NE9       30.00R
TOPEKA BILLARD CLOUDY    80  68  66 NE6       29.99R
TOPEKA FORBES  CLOUDY    81  68  64 NE7       29.99R
$$




USA.gov is the U.S. government's official web portal to all federal, state and local government web resources and services.